THORAD AGENA D DEB, 4652

Orbit data source: Space-Track

THORAD AGENA D DEB, 4652 is space debris in SSO originally from a launch on Wed, 08 Apr 1970 UTC launched from the Air Force Western Test Range (AFWTR). Debris objects in space refer to the collection of defunct objects orbiting the Earth. Examples of debris include non-operational satellites, rocket bodies, and fragments generated from explosions, collisions, or faulty payload assembly.

Loading next visibility...
Identifier
4652, 1970-025AL
Orbit
SSO
Country
Flag of USUS
Related business
Manufacturer
Unknown
Mission
Spacecraft
Bus & Motor
Unknown
Mass
Unknown
Launch date (UTC)
1970-04-08 (56 years ago)
Launch vehicle
Unknown
Launch site
Air Force Western Test Range (AFWTR)
Object type
Payload
Rocket body
Debris
Shape & HBR
Unknown shape, 0.1 m
Radar Cross Section
Medium (>0.1 m² and <1 m²)

Expand to show TLE details & history
Last TLE update: 12 hours ago

TLE from 12 hours ago
0 THORAD AGENA D DEB
1 04652U 70025AL  26208.39200876  .00000736  00000-0  62504-3 0  9990
2 04652  99.6231   4.2501 0031867 115.3538 274.2755 13.90733570822813
Epoch: 2026-07-27T09:24Z
TLE epoch observation values (Epoch: 2026-07-27T09:24:29.556Z)
Latitude
28.86106°
Longitude
-87.28315°
Altitude
927.907 km
Speed
7.391 km/s
True Right ascension
23h 55m 39s
True Declination
28° 43' 09"
Sunlit
Object was in daylight at epoch
Visualization orbit readout
Latitude
Unknown
Longitude
Unknown
Altitude
Unknown
Speed
Unknown
Apparent Right ascension
Unknown
Apparent Declination
Unknown
Sunlit
N/A
Visualization observer readout
Local Sidereal Time
10:29:29
Azimuth
Unknown
Elevation
Unknown
Doppler factor
Unknown
Orbital elements
Apogee altitude
946.572 km
Perigee altitude
900.037 km
Semi-major axis
7,301.441 km
Eccentricity
0.00319
Inclination
99.6231°
RAAN
4.2501°
Arg. of periapsis
115.3538°
True anomaly
273.91124°
Mean anomaly
274.2755°
Eccentric anomaly
274.09338°
Mean motion
3.47881 °/min
Orbital period
103.48 mins
BSTAR
0.00062504
Loading maneuver chart data...
Computing Atmospheric mass density...

Documentation

Showing up to 5 results
|